Theta_e
332 331 332 332 333 332 333 334 334 333 333 333 333 331 330 330 332 332 333 333 332 331 332 332 332 331 331 329 328 327 325 325 325 325 325 325 326 327 327 328 327 326 326 326 326 326 325 325 325 325 327 328 328 327 325 331 335 334 334 333 334 333
332 330 331 332 333 333 333 333 332 333 333 334 333 332 331 331 332 332 332 332 332 331 331 333 334 335 335 334 331 330 328 327 326 325 325 324 325 325 325 325 324 324 324 324 324 324 324 324 324 328 330 331 332 330 328 332 334 333 334 334 334 332
331 330 332 333 333 332 333 333 332 332 332 334 334 332 331 330 331 330 330 331 333 331 330 332 333 335 337 335 333 332 331 329 327 325 324 324 324 324 324 324 326 328 326 325 326 326 327 327 329 331 332 333 333 332 332 333 334 333 334 334 333 331
331 332 333 333 332 332 333 333 334 332 332 334 333 331 330 330 329 329 330 332 332 332 332 333 333 335 336 335 335 334 333 332 331 329 326 325 324 324 325 326 330 333 329 328 331 331 330 331 332 332 333 333 333 332 333 334 335 334 333 333 333 331
333 333 332 331 331 332 333 334 334 333 332 334 333 332 332 332 332 331 331 332 331 331 332 331 332 333 333 332 333 333 333 334 333 333 332 330 330 329 329 331 333 334 332 331 333 333 333 333 333 333 333 334 332 332 334 335 335 334 333 334 333 332
333 333 331 331 332 332 334 336 335 333 332 333 334 333 332 332 332 332 331 331 330 331 331 330 330 331 332 331 331 332 332 333 333 333 334 333 333 332 333 334 333 333 333 333 333 333 334 333 334 333 333 333 333 333 334 335 334 333 334 334 334 332
333 332 331 332 332 333 335 336 335 333 332 333 333 333 332 331 331 331 331 331 330 331 331 330 330 331 331 331 330 330 332 333 332 332 332 332 332 332 332 332 333 333 333 333 333 333 333 333 333 333 333 333 333 334 334 334 333 333 333 334 335 333
334 333 332 333 333 333 335 336 334 332 333 334 333 332 331 330 331 330 330 330 330 331 331 330 331 332 330 329 329 330 331 332 332 332 332 331 331 331 331 331 332 332 332 333 333 333 333 333 332 332 333 334 334 334 335 333 332 334 333 335 336 334
334 334 333 334 334 333 334 335 332 331 332 332 331 331 331 331 331 330 330 331 330 331 332 330 331 332 329 328 328 329 330 331 332 332 331 330 330 330 331 331 332 332 332 333 333 333 332 332 332 332 333 334 334 334 333 333 333 334 334 336 336 334
334 334 334 334 334 332 332 333 332 332 331 331 331 330 330 329 328 329 330 331 331 331 332 331 331 331 330 329 329 329 330 331 331 331 331 330 330 330 330 330 330 331 332 333 334 334 334 333 332 332 332 332 333 332 332 333 332 333 335 336 336 336
334 335 334 334 334 332 332 332 333 333 331 331 331 328 328 328 327 329 332 331 331 331 331 330 330 330 331 330 329 329 329 330 330 331 331 331 330 330 330 331 330 331 331 332 333 333 333 334 333 332 331 331 332 331 331 332 332 333 335 336 336 336
334 334 333 331 331 330 330 330 330 330 329 329 328 326 327 329 329 330 331 331 331 331 331 330 329 330 330 330 328 328 328 329 329 330 330 330 330 330 331 331 330 330 330 330 329 329 331 333 333 331 331 331 331 331 331 332 332 332 333 333 334 335
332 332 329 326 325 326 326 324 322 323 326 327 326 326 328 330 330 330 329 330 331 330 330 329 329 330 330 329 328 328 328 328 328 329 329 329 330 330 330 330 330 330 329 329 328 327 329 332 332 331 331 330 330 331 331 331 332 332 333 333 334 333
330 329 326 324 323 324 324 322 321 322 326 328 328 328 329 330 330 330 327 328 330 329 328 329 329 329 329 328 328 328 329 328 327 328 329 329 328 329 329 329 329 329 328 328 328 327 328 330 332 331 330 330 330 331 332 332 332 333 333 333 333 332
329 325 324 323 323 325 325 326 325 325 328 328 329 329 329 330 330 329 327 327 329 328 328 328 328 329 328 327 328 329 329 328 327 328 329 329 327 327 328 329 329 328 328 328 328 328 327 330 332 331 330 331 331 331 332 333 333 333 333 332 332 332
326 323 322 323 326 327 327 327 328 328 329 329 329 329 329 330 329 329 327 327 328 329 328 327 327 329 328 327 327 329 328 327 327 327 328 328 327 326 326 328 329 328 328 328 329 328 328 331 332 330 330 331 330 331 332 333 334 334 334 333 333 333
325 323 322 324 328 328 327 327 329 329 329 328 329 329 329 329 328 328 327 327 328 328 327 325 326 328 328 327 326 327 328 327 327 327 327 326 325 326 326 327 328 328 328 329 329 328 328 330 331 330 331 330 330 331 332 333 334 334 334 334 333 333
325 324 324 326 329 329 328 329 329 330 330 329 328 328 328 328 328 327 328 328 327 327 326 324 324 325 326 327 326 326 327 327 327 328 328 326 325 325 326 328 328 328 328 329 329 330 329 330 330 330 331 331 330 332 333 334 334 334 334 333 333 332
327 327 328 329 330 330 329 329 329 330 330 329 328 327 327 328 328 328 328 327 325 326 327 326 325 324 324 327 327 325 326 327 327 328 328 327 325 325 325 327 327 327 328 328 330 331 330 330 330 331 332 331 332 333 333 333 333 333 333 332 332 331
329 330 331 331 330 330 329 329 329 330 330 328 327 327 327 327 327 327 327 325 326 327 326 327 327 325 324 326 328 326 324 326 327 328 328 327 327 326 325 326 327 328 328 328 330 332 331 331 331 331 332 332 331 331 331 331 331 332 331 330 330 330
331 331 331 331 330 330 330 330 330 330 329 328 327 327 326 325 325 325 326 325 326 327 325 326 327 327 325 324 327 328 325 325 326 327 327 327 327 326 325 326 326 327 329 328 330 331 332 332 331 330 330 330 329 329 330 330 330 330 329 328 329 329
332 332 331 331 331 330 330 330 330 330 330 329 329 328 326 326 325 326 327 326 325 325 324 325 326 327 325 324 325 327 327 325 325 325 326 325 326 326 325 325 325 327 328 329 329 330 330 331 330 329 329 328 328 328 327 327 328 328 327 326 327 327
332 332 331 331 331 331 330 330 329 329 330 328 328 328 327 328 328 327 327 326 324 325 324 323 325 326 325 323 323 325 326 325 324 323 324 324 325 325 324 324 324 326 328 328 328 329 330 329 329 329 329 329 329 328 328 326 327 327 326 326 326 326
331 330 330 331 330 330 330 331 329 328 328 327 327 328 329 329 329 328 327 327 326 326 325 324 324 324 324 322 322 324 324 324 324 323 323 323 324 324 323 323 324 326 326 328 328 329 330 329 329 329 329 329 328 329 329 328 326 326 327 326 325 326
330 329 329 330 330 329 329 329 329 329 328 328 328 329 329 329 329 329 328 327 327 326 326 324 323 323 323 321 320 323 322 322 323 323 323 323 323 324 323 322 325 325 325 327 327 328 329 329 329 329 329 329 329 330 330 327 326 325 325 326 326 325
330 329 330 330 329 329 328 329 330 329 328 328 329 329 330 330 330 329 329 327 327 327 326 325 324 322 322 320 320 322 322 321 323 323 323 323 323 323 323 322 324 324 324 325 327 327 328 328 328 328 328 328 330 330 328 326 327 327 325 325 325 325
330 330 330 329 329 327 329 331 332 330 330 330 331 331 331 331 330 329 329 328 328 328 326 325 325 322 321 320 320 322 323 323 323 322 323 323 323 323 323 323 322 322 322 324 326 327 327 328 328 328 327 327 328 328 327 327 327 327 326 325 325 325
329 330 329 329 328 328 329 332 332 331 331 331 330 330 331 330 328 328 328 328 329 328 326 326 325 323 321 321 321 322 323 323 323 323 322 323 323 323 322 322 322 322 321 323 326 326 326 327 328 328 327 327 327 328 327 326 325 325 326 325 324 323
329 330 330 330 329 329 329 331 332 331 331 330 329 328 329 328 327 327 328 328 329 329 328 327 326 324 323 322 322 321 322 323 323 323 322 322 322 322 322 321 321 322 321 322 325 325 325 326 327 327 327 327 327 327 327 326 324 324 324 325 325 321
328 330 330 330 330 330 329 329 330 331 331 330 329 329 329 328 327 328 329 329 329 329 329 329 328 326 326 324 322 321 322 323 323 322 323 323 322 321 321 320 321 321 320 320 322 324 324 325 326 326 327 327 326 327 327 326 325 325 323 323 323 320
328 329 329 329 330 330 330 330 329 329 330 330 330 330 330 330 329 329 329 329 329 328 329 330 329 328 326 325 323 321 322 322 322 322 322 322 322 321 320 319 320 320 319 319 321 323 324 324 325 325 326 327 327 326 327 326 326 325 324 323 322 321
330 329 329 328 328 329 329 329 329 328 328 330 330 329 330 330 330 330 328 328 328 328 328 329 329 328 326 326 324 321 321 321 321 322 322 322 322 321 320 319 319 320 319 319 320 323 324 323 324 325 325 326 326 326 326 326 327 325 324 322 321 319
332 331 331 331 330 330 330 329 330 330 330 331 332 330 329 330 330 330 329 328 328 329 329 329 329 329 327 326 324 322 321 321 321 321 321 322 320 320 320 318 318 319 319 319 319 321 322 323 323 324 324 324 324 325 325 326 326 326 324 322 319 316
333 332 333 333 332 333 333 331 330 330 330 330 331 331 329 329 329 329 329 329 329 329 330 329 329 328 327 326 325 323 322 321 321 320 320 320 319 319 319 318 317 318 318 318 319 319 320 321 322 322 323 323 323 323 325 325 325 326 325 323 318 314
334 333 333 334 333 333 334 333 331 331 330 329 330 331 331 329 327 327 328 328 328 328 329 329 329 328 327 327 325 323 321 321 320 320 320 319 318 318 318 316 316 318 318 318 318 318 318 320 321 322 322 323 322 322 323 323 325 326 325 323 319 315
335 334 334 333 334 334 333 333 331 329 330 329 329 330 331 330 327 327 327 326 327 327 327 329 329 327 327 327 325 322 321 320 320 320 319 318 317 318 317 316 316 317 318 318 318 318 318 319 320 322 322 323 321 321 322 323 323 324 324 323 320 316
334 334 334 333 332 332 332 331 329 327 328 329 329 329 330 329 329 329 327 326 326 326 326 328 327 325 325 326 325 323 321 321 321 319 317 317 317 318 317 316 317 317 317 317 317 318 318 317 319 321 321 321 321 321 322 323 322 323 324 323 320 316
Wind_Speed
7 7 6 7 7 7 6 6 7 8 8 7 7 7 7 7 6 5 5 5 5 5 5 5 4 4 3 3 2 2 2 2 2 3 3 3 4 4 4 4 5 5 6 5 6 6 6 6 6 6 7 9 10 10 10 8 5 7 4 4 6 7
6 6 6 6 6 6 5 6 7 6 6 5 6 6 5 5 4 4 3 3 4 4 4 3 3 3 3 2 1 1 0 1 2 2 3 3 3 3 3 3 4 4 4 4 4 5 5 5 4 5 6 10 12 9 7 7 4 4 3 4 5 6
6 5 5 5 6 6 4 5 6 5 3 2 4 6 5 4 4 3 2 2 3 3 3 2 2 2 2 1 0 0 1 1 1 2 2 3 3 3 3 3 4 4 5 4 4 5 5 4 3 4 7 10 12 9 7 6 5 7 6 4 4 6
5 5 4 5 5 5 4 3 4 3 2 2 4 5 4 3 3 3 2 2 2 2 3 2 1 1 1 1 1 1 1 1 2 2 3 3 3 4 5 5 4 5 5 5 4 5 5 4 5 6 8 11 12 10 8 6 6 9 9 6 5 6
6 5 4 4 4 3 3 2 2 3 3 3 3 3 3 2 3 4 4 5 5 5 5 5 5 3 3 3 3 3 2 2 3 3 4 5 4 5 6 6 5 5 5 5 5 5 6 6 7 9 10 11 11 9 8 7 8 10 10 8 6 6
6 5 3 3 3 2 2 1 2 3 4 3 3 4 4 4 5 6 8 9 9 8 8 8 7 6 6 6 6 6 5 5 4 5 6 6 6 7 7 7 7 6 7 7 7 7 8 8 9 9 9 9 9 8 8 8 8 10 9 7 6 6
6 5 4 2 3 3 2 2 3 4 5 4 5 5 4 4 6 7 9 10 11 10 9 8 9 10 9 8 8 7 7 6 6 6 7 7 7 7 7 8 8 9 9 9 9 8 9 9 9 9 8 8 9 9 8 7 8 8 7 7 7 7
5 4 3 3 3 3 3 3 4 4 4 4 5 6 5 5 6 8 9 10 11 11 10 9 10 12 11 9 9 8 7 6 6 6 7 8 7 6 8 9 8 8 8 8 8 7 8 8 9 9 8 8 8 9 8 7 6 6 6 6 7 7
5 4 4 4 4 4 4 4 4 5 4 5 6 7 7 7 9 10 10 10 10 10 10 9 10 12 11 10 11 10 7 5 5 5 6 8 7 6 8 8 8 8 7 7 7 6 6 6 8 9 8 8 7 7 7 6 5 6 6 6 7 6
5 5 5 6 5 4 5 5 5 6 6 6 6 7 8 9 10 10 10 10 10 10 10 9 9 11 11 10 12 11 10 8 6 5 6 8 7 7 8 7 7 7 6 7 7 6 5 5 7 7 7 8 7 6 6 4 4 5 4 4 5 5
4 4 5 6 6 5 5 6 5 5 5 4 4 6 7 8 6 6 8 9 11 10 11 9 9 12 10 10 11 12 11 11 10 9 7 8 8 8 9 7 6 6 6 7 7 7 7 6 7 8 7 6 5 4 2 2 2 2 2 2 2 4
5 5 5 6 7 8 7 5 4 3 3 2 2 3 5 7 6 6 6 7 9 10 11 11 11 13 10 9 10 11 11 11 12 11 10 10 9 9 7 6 6 7 7 7 8 9 8 8 7 7 7 5 2 2 1 1 1 1 3 3 2 3
6 5 6 6 7 7 5 4 4 3 3 3 3 2 3 5 6 7 8 7 8 10 11 11 13 13 11 10 11 11 12 11 11 11 10 11 11 9 6 5 6 6 6 8 10 10 8 7 6 4 5 3 2 2 1 2 3 2 2 2 2 3
6 6 5 5 4 5 5 5 4 4 5 4 4 4 5 5 4 6 9 7 8 10 10 11 13 13 11 11 11 11 12 12 12 11 10 11 11 10 7 8 9 7 7 9 10 10 7 4 4 2 3 2 2 2 2 3 5 5 4 5 7 8
6 5 4 4 5 5 5 5 5 4 5 5 5 6 7 4 2 6 8 7 8 10 10 10 12 12 11 12 11 11 11 12 13 12 11 11 11 10 8 8 9 9 10 11 11 11 7 1 4 2 2 0 1 0 2 4 6 7 7 9 11 12
4 3 2 4 5 4 4 4 5 5 5 6 6 6 5 3 3 6 8 7 8 9 10 10 11 11 11 11 12 12 11 12 13 13 12 12 11 11 10 8 8 10 11 12 12 11 6 4 6 3 2 1 1 1 2 4 6 7 8 11 12 12
3 1 1 2 3 4 4 3 3 5 6 7 7 5 2 2 4 7 8 7 7 8 9 10 9 10 11 11 11 11 11 11 12 13 13 13 12 12 11 9 8 9 11 11 12 10 7 8 8 6 4 2 2 4 5 5 7 6 6 8 9 11
1 0 1 1 2 3 3 3 5 7 8 7 6 4 3 3 6 7 7 7 7 7 9 11 10 9 9 10 10 10 10 10 11 12 13 14 13 11 12 11 10 10 10 11 11 10 9 10 9 7 5 3 4 6 6 6 8 7 6 7 8 10
1 1 1 2 3 4 5 6 6 7 7 6 5 5 5 5 5 6 7 8 8 8 9 10 11 10 9 10 10 11 10 9 10 11 11 13 14 13 13 12 11 10 10 12 12 11 11 12 10 7 6 6 6 7 7 7 9 9 9 11 12 12
1 1 3 3 4 5 6 7 7 7 6 4 3 4 4 5 5 6 7 8 7 9 10 8 7 9 10 9 9 11 11 9 10 10 10 11 13 13 13 11 11 10 10 13 14 13 13 14 14 10 8 8 8 8 8 7 8 9 9 11 14 15
1 3 4 5 6 6 7 9 10 9 7 4 2 4 5 6 7 6 6 7 6 7 10 9 5 6 10 10 8 10 10 10 10 9 9 10 10 11 11 10 10 9 9 12 13 13 16 18 16 11 8 8 9 8 8 7 7 6 6 11 14 15
3 5 6 6 7 8 9 10 12 11 9 5 4 4 5 6 7 5 5 7 7 6 9 10 5 4 9 11 9 8 9 10 9 9 8 9 9 10 11 11 10 9 9 10 10 9 12 11 9 10 9 7 7 8 8 7 8 6 6 11 14 15
5 7 7 7 9 10 11 9 8 6 5 3 3 3 4 5 5 4 5 7 7 7 7 8 7 5 6 10 10 8 9 8 8 8 8 8 9 9 10 11 11 9 9 8 8 7 5 2 5 11 10 4 1 4 6 6 7 7 8 10 12 14
7 7 7 8 9 10 8 5 5 4 1 2 3 3 4 5 4 4 4 6 7 6 7 6 7 6 6 9 8 8 9 7 5 6 7 7 8 9 9 9 10 9 10 9 8 8 8 7 5 9 5 2 1 1 2 2 5 7 8 10 11 12
7 7 9 10 7 5 5 5 5 4 2 4 5 5 7 7 6 6 5 7 7 7 7 5 6 5 5 8 6 6 9 7 5 3 4 6 7 8 9 8 8 8 10 10 9 8 7 7 5 3 3 3 3 1 1 4 4 4 4 8 10 11
8 9 10 7 4 5 7 7 7 7 6 7 8 8 8 8 7 7 6 6 7 7 6 4 6 5 3 6 5 5 7 7 5 3 2 4 5 8 8 8 8 8 8 9 9 9 8 7 5 3 1 3 2 3 6 7 4 2 2 4 6 9
7 7 7 6 7 8 7 6 7 8 8 9 10 10 9 9 8 7 6 6 6 6 5 4 6 5 2 3 5 5 5 5 4 4 4 3 5 7 7 7 8 9 8 7 7 9 9 8 4 5 3 2 1 6 13 10 4 3 2 1 3 8
6 7 8 8 9 8 6 7 9 9 10 10 11 12 10 9 9 8 7 6 6 6 4 4 4 5 4 4 5 5 4 3 3 4 4 5 6 6 6 6 6 9 9 6 7 8 8 7 5 5 4 3 2 8 14 9 9 9 4 1 2 5
7 7 7 7 7 7 7 8 9 9 10 10 11 11 9 9 9 9 9 8 7 7 6 6 5 5 6 6 6 5 3 2 2 3 4 4 4 5 6 5 5 7 8 6 6 7 6 7 5 5 3 2 4 8 9 6 10 10 5 4 2 2
7 7 6 6 7 8 8 10 10 9 10 11 12 11 9 10 11 11 12 11 9 9 8 8 7 7 7 7 6 5 3 3 2 2 2 2 2 4 4 5 5 6 7 7 6 5 6 5 4 4 2 1 3 6 5 4 9 8 5 4 3 4
8 9 9 9 9 11 11 11 12 11 11 11 12 12 13 13 14 13 13 12 11 11 11 10 9 8 8 7 5 4 4 4 3 3 1 1 2 3 3 3 4 5 5 7 5 3 4 4 3 2 2 1 3 5 4 5 10 11 8 5 5 4
10 11 12 13 14 14 14 13 13 13 13 12 12 13 14 14 14 13 13 13 12 13 13 12 11 10 8 7 5 3 4 5 4 3 2 1 1 2 2 2 2 3 3 5 4 1 2 4 3 1 2 1 1 5 6 6 10 14 12 11 12 7
14 13 13 14 15 16 16 16 15 12 12 13 13 13 13 12 12 11 11 12 13 15 15 14 12 11 9 7 6 4 3 4 4 4 3 2 3 2 1 1 2 1 1 2 3 2 1 2 2 1 1 1 1 3 4 5 7 11 12 15 17 10
16 16 15 16 17 17 18 16 12 11 13 15 16 16 15 14 12 12 12 12 13 15 16 16 14 11 10 8 7 6 4 4 4 5 4 3 4 2 2 1 2 2 1 1 2 2 2 2 2 2 2 2 2 3 3 4 5 8 12 16 20 15
17 17 18 18 19 20 20 19 16 14 16 19 19 19 18 18 16 16 16 16 15 15 15 17 15 12 10 9 8 8 6 4 5 6 5 4 4 3 3 1 2 3 1 1 1 2 2 2 1 3 3 2 2 3 3 2 4 6 12 18 22 22
17 18 19 20 21 22 22 22 18 14 16 21 22 22 21 20 18 18 19 18 18 17 14 13 12 10 11 11 9 9 8 6 6 7 6 6 5 4 4 3 3 3 2 2 1 1 1 1 1 3 4 3 2 2 2 2 2 4 11 19 22 24
18 18 19 20 22 23 24 23 17 14 15 19 21 22 21 20 19 20 20 20 19 18 14 11 10 11 13 13 11 11 9 8 8 8 7 7 5 4 4 4 5 4 3 3 2 2 2 1 1 3 4 3 3 2 1 2 2 4 10 18 22 22
Wind_Direction
136 134 127 123 121 119 117 115 113 114 117 125 139 154 157 149 149 146 141 137 132 134 128 120 115 105 98 97 87 82 100 127 137 143 150 164 182 205 224 236 248 253 259 267 273 280 289 295 300 314 332 348 352 353 345 333 357 14 351 252 234 213
152 146 142 138 131 123 119 114 115 121 126 131 138 148 157 157 155 141 132 140 142 135 125 117 113 95 56 56 72 64 357 262 216 196 183 185 193 203 219 237 255 267 274 283 291 300 309 303 301 323 342 353 350 338 316 296 280 318 302 226 220 217
161 153 153 150 136 124 125 119 115 128 135 124 136 141 150 166 165 146 118 129 147 128 110 111 118 99 41 11 106 13 293 300 282 268 241 231 238 248 258 262 277 294 298 301 311 324 326 319 318 335 347 345 331 305 295 301 290 297 290 243 204 217
159 163 163 151 137 129 142 140 119 130 137 121 139 142 141 154 142 123 82 78 111 87 61 46 22 350 319 263 272 302 305 315 313 315 297 282 277 277 277 271 286 301 300 298 310 327 324 320 324 330 335 323 306 292 299 309 301 300 290 267 223 219
166 179 170 143 137 132 150 156 121 131 134 120 128 129 120 111 92 80 62 49 43 33 25 22 16 4 343 324 316 317 325 318 314 319 309 304 301 298 291 283 295 308 303 298 303 315 317 321 326 327 321 307 299 296 301 301 294 294 284 263 234 226
178 187 175 147 143 133 147 152 119 123 114 98 84 76 78 80 72 60 54 48 41 35 28 30 32 23 4 350 345 339 334 328 330 330 316 312 311 308 304 300 303 307 307 303 302 307 311 317 319 317 310 302 300 291 291 300 295 287 277 261 237 227
185 189 181 153 132 123 130 119 99 101 93 81 67 59 64 74 65 50 44 41 38 34 30 35 33 21 14 9 4 356 342 326 326 332 328 322 315 313 312 309 303 298 300 300 301 304 303 304 306 302 297 298 294 283 283 297 297 286 276 266 246 222
171 181 173 128 119 127 121 102 86 93 87 62 46 45 49 49 37 31 30 30 32 31 24 24 22 18 22 28 27 22 6 338 327 330 338 335 321 316 315 312 310 305 298 295 299 303 298 292 291 287 283 292 290 284 287 292 291 283 289 278 244 217
133 141 134 100 107 133 123 101 84 88 66 31 29 31 26 11 358 0 14 25 31 30 20 14 15 18 26 34 32 28 26 13 351 340 348 349 334 327 326 317 317 321 307 297 301 306 302 291 290 285 280 286 284 286 289 286 281 278 290 274 234 215
119 110 105 88 93 114 109 97 82 71 47 27 21 11 1 351 344 351 5 18 25 25 17 10 12 18 28 39 36 34 40 44 27 2 353 354 347 345 349 339 330 333 321 310 310 309 308 304 299 294 292 291 281 283 283 269 276 281 279 257 228 222
123 107 103 90 91 103 102 96 92 79 63 49 22 13 18 14 7 8 6 10 16 15 13 10 12 17 28 43 39 34 37 42 39 28 14 5 357 349 352 359 1 358 350 339 329 317 307 299 298 299 306 307 290 290 283 221 257 261 222 230 240 236
140 127 120 107 109 121 124 117 121 133 111 93 40 35 51 49 44 29 8 8 14 9 8 10 13 18 30 43 32 26 28 34 38 35 32 24 12 358 352 10 14 7 6 358 347 337 314 288 290 307 313 309 309 343 27 128 113 191 191 211 228 222
149 136 124 121 124 121 111 97 101 115 99 82 69 58 45 41 40 29 13 7 11 7 8 12 19 28 40 41 28 25 25 27 26 23 29 30 25 20 19 29 16 5 5 1 1 357 330 281 270 307 314 305 343 354 352 97 95 109 139 153 145 134
152 142 129 119 112 88 66 59 68 80 72 57 43 26 9 1 7 23 16 13 15 12 14 16 23 37 47 40 32 31 27 23 19 16 24 29 29 32 34 28 15 13 19 19 18 12 353 276 238 261 302 336 34 351 4 73 95 101 106 104 108 113
155 143 128 84 71 69 57 55 63 65 53 37 23 18 12 359 7 23 17 26 27 16 18 20 25 37 42 36 34 36 31 24 19 22 30 27 22 22 23 22 17 17 25 33 34 22 16 209 195 197 241 353 60 60 45 71 101 103 97 103 108 110
163 143 101 70 74 76 78 79 69 53 36 24 17 16 19 46 59 20 9 24 28 17 16 19 27 35 33 30 30 34 33 24 21 26 28 20 16 16 15 20 21 16 19 36 44 33 42 137 158 154 169 150 86 100 79 72 98 105 99 105 111 113
165 127 49 82 86 78 87 85 41 13 3 4 10 17 50 83 45 15 9 21 20 13 11 14 26 31 29 26 21 28 32 26 26 30 25 19 16 17 16 16 21 18 17 40 58 59 88 130 139 144 147 129 83 70 71 77 94 109 112 112 119 122
181 341 32 79 56 45 38 14 358 351 349 355 15 55 99 68 35 23 20 18 15 18 17 20 25 21 22 21 13 19 25 27 32 34 30 25 20 17 17 16 20 27 31 53 77 92 115 134 140 141 137 113 90 83 88 105 108 109 113 113 113 116
230 241 252 300 337 346 338 338 342 345 353 7 32 68 77 42 28 25 17 14 23 29 19 17 20 16 14 15 16 15 17 27 33 34 35 31 25 18 16 17 19 34 54 64 85 117 127 135 140 132 125 108 96 98 107 121 117 113 118 116 112 111
201 252 277 296 316 324 324 329 333 341 354 9 33 39 27 10 7 9 16 21 27 21 8 359 4 15 15 10 15 15 16 25 26 28 37 37 34 24 18 19 21 36 63 67 87 123 133 137 135 118 109 105 97 93 92 102 110 120 129 119 115 118
307 288 293 305 313 317 319 322 321 325 335 336 342 350 350 358 0 6 21 24 14 6 9 9 358 10 18 12 10 14 17 21 22 25 33 41 43 34 22 17 23 40 58 65 80 113 132 134 127 113 100 88 81 80 81 85 92 109 125 113 116 124
304 297 300 301 299 300 304 312 307 300 305 309 301 308 341 8 13 20 25 23 20 10 13 24 20 5 19 19 12 12 13 10 15 20 28 43 48 39 26 15 19 36 53 66 66 93 130 135 132 130 121 92 66 61 62 68 77 84 92 101 115 125
296 297 295 291 294 298 301 318 328 306 292 319 331 326 358 10 12 22 22 19 25 20 14 20 20 17 21 20 15 12 8 2 6 12 20 41 48 40 29 16 15 25 41 62 59 63 87 98 159 148 129 113 82 59 57 56 69 87 92 99 116 124
290 292 296 301 307 308 302 320 359 10 5 3 14 9 354 349 347 355 1 2 7 8 6 3 6 21 21 12 11 8 6 2 2 8 11 27 44 41 33 24 17 20 26 35 41 47 51 55 125 155 138 96 96 82 87 78 71 83 97 104 113 123
286 294 304 307 311 320 311 312 330 341 335 331 334 329 330 333 333 328 324 342 352 347 350 353 355 9 13 10 12 4 8 11 5 5 3 14 39 42 39 38 28 23 24 23 22 34 48 49 68 142 169 135 108 72 166 154 121 74 86 107 113 122
284 296 303 300 303 315 313 315 321 321 319 323 322 316 318 318 319 317 309 328 343 333 328 343 359 3 11 17 15 358 5 14 13 32 33 20 45 47 43 44 38 30 24 20 17 24 30 24 31 50 135 177 198 216 172 152 136 48 64 112 122 132
278 295 301 301 306 307 305 313 318 315 313 316 310 304 304 299 296 298 296 309 324 326 312 311 348 359 1 2 1 357 8 14 16 44 56 57 71 62 54 51 43 32 20 16 18 18 18 14 23 34 43 145 246 196 168 155 153 142 119 124 138 140
267 289 290 290 302 305 298 302 309 307 302 302 304 308 301 281 279 288 292 295 298 305 300 285 316 342 338 327 333 346 12 18 5 34 57 80 85 75 71 65 50 34 21 17 17 12 14 19 23 21 34 78 92 163 163 156 161 154 129 120 131 130
261 287 289 282 291 299 289 292 305 308 304 298 301 311 300 270 274 286 290 287 280 285 291 286 295 315 326 330 329 332 10 36 356 29 65 93 85 76 75 62 56 42 24 17 17 8 12 23 19 9 17 76 107 154 166 166 164 155 131 140 150 129
259 280 293 287 286 293 287 283 291 296 302 302 297 302 299 281 280 283 284 283 279 282 287 287 290 299 315 330 335 325 355 36 354 354 52 83 55 64 71 49 55 55 24 11 14 6 6 15 12 11 23 157 144 158 166 176 177 170 149 136 141 157
260 267 277 283 286 291 290 286 286 284 288 297 297 298 300 296 288 281 279 280 283 287 290 290 288 291 304 320 332 315 318 348 338 313 340 44 26 42 51 29 49 62 26 6 6 1 9 10 4 35 61 148 197 201 200 211 203 188 172 148 137 146
270 266 270 277 282 285 287 288 287 283 280 288 294 295 301 306 300 289 282 281 283 287 289 286 284 287 293 302 318 324 301 309 318 309 306 348 351 15 35 11 44 70 43 16 17 15 13 7 360 54 70 58 258 241 236 238 218 200 192 172 155 143
278 276 278 281 283 284 285 283 285 295 304 302 290 280 284 298 304 301 293 291 292 292 289 279 275 281 283 284 296 308 295 283 290 300 289 281 298 292 214 324 2 73 71 17 30 43 7 343 337 355 10 342 321 278 253 249 225 211 205 173 154 148
286 287 288 288 287 287 285 284 292 312 317 308 295 286 283 285 293 297 293 294 297 298 294 282 273 275 275 272 280 284 281 269 267 278 272 269 290 271 188 269 299 197 178 359 33 44 35 340 297 254 252 274 304 318 285 265 245 222 209 178 161 158
289 292 293 292 291 291 289 288 288 285 284 288 290 290 288 283 286 293 293 292 291 294 295 285 272 267 263 261 269 271 264 259 258 262 257 258 270 243 199 217 224 190 173 164 125 30 39 39 285 219 219 233 266 327 339 300 273 237 214 192 176 169
294 297 298 297 295 294 293 296 301 297 291 293 293 292 293 290 288 293 294 290 284 283 288 283 270 267 263 255 260 263 251 240 246 251 247 247 249 226 209 212 200 193 214 222 220 314 342 54 116 183 198 213 235 296 341 337 277 236 216 200 187 179
300 302 302 300 298 297 297 303 318 327 308 296 294 294 297 298 295 294 293 290 286 281 280 271 257 261 262 255 257 262 252 240 240 238 236 239 234 215 213 222 215 207 217 236 261 281 260 245 200 174 176 196 221 249 312 335 274 225 216 203 191 186